Location: Burland Observatory
(39.4088°N, 105.4217°W)
Time: 17:12:59
(UTC-07:00)

SR - Pass Details

Date: 17 December 2019
Orbit: 574 x 882 km, 66.7° (Epoch: 26 January)

Event Time Altitude Azimuth Distance (km) Brightness Sun altitude
Rises 08:53:59 0° 246° (WSW) 3,290 ? 14.0°
Reaches altitude 10° 08:56:48 10° 260° (W) 2,410 ? 14.3°
Maximum altitude 09:01:18 24° 313° (NW) 1,680 ? 14.9°
Drops below altitude 10° 09:06:00 10° 7° (N) 2,524 ? 15.5°
Sets 09:09:02 0° 20° (NNE) 3,480 ? 15.9°
